Back to catalog

STARLINK-11424

AliveCommunicationsVLEO
NORAD 61949·PAYLOAD·🇺🇸 United States

Launched Nov 14, 2024 from Vandenberg Space Force Base

Loading…

Next Passes (next 24 hours)

TLE

FreshSource: CelesTrak SupGP

Epoch: Sep 14, 2026, 21:02 UTC

1 61949C 24209L   26257.87687500 -.00041957  00000+0 -34547-3 0  2579
2 61949  53.1568 158.5235 0001119  96.6514 256.2756 15.69740085    10

Track STARLINK-11424 in real time with AllMySat

Download on the App Store